STARLINK-1911 (46749 NORAD) Tracking and Keplerian Element Data

This shows tracking and keplerian element data for the satellite.

Feedback or suggestion? Click here.




ElementValue
Catalog46749
NameSTARLINK-1911
Epoch Orbit515
Epoch Day328.16667824
Epoch Year2020
RAAN15.4475
Inclination53.0556
Eccentricity0.0001155
Argument of Perigee63.9133
Mean Anonmoly182.4268
Mean Motion15.62803917
Decay Rate-0.00017836
L11 46749U 20074L 20328.16667824 -.00017836 00000-0 -18901-3 0 9997
L22 46749 53.0556 15.4475 0001155 63.9133 182.4268 15.62803917 5153

Live tracking and technical data element details for STARLINK-1911 (NORAD 46749). STARLINK-1911 can be tracked NOW for your location showing map with azimuth and elevation plus other details from your city location.

Track the satellite on the map from your city or location and see movement details for azimuth, elevation, latitude, longitude, range, height, and movement on the map or in text.







IsCatalogInMostPopularTable: catalog: 46749, numindb: 6
Update: records affected: 1



GetName: 46749 STARLINK-1911

Hit Count: updated at: Tue, 24 Nov 2020 11:30:30 GMT